Location: ShareBrained
(45.5589°N, 122.6491°W)
Time: 00:25:48
(UTC-07:00)

NOAA 19 - Visible Passes

Search period start: 28 September 2022 00:00
Search period end: 08 October 2022 00:00
Orbit: 841 x 860 km, 99.1° (Epoch: 27 September)

Date Brightness Start Highest point End Pass type
(mag) Time Alt. Az. Time Alt. Az. Time Alt. Az.
28 Sep 5.5 19:55:36 10° SE 20:00:54 49° ENE 20:06:14 10° N visible
28 Sep 7.1 21:37:11 10° SSW 21:41:46 26° W 21:46:23 10° NW visible
29 Sep 5.7 19:43:58 10° SE 19:49:03 39° ENE 19:54:11 10° N visible
29 Sep 6.8 21:24:49 10° SSW 21:29:45 33° W 21:34:44 10° NNW visible
30 Sep 6.0 19:32:24 10° SE 19:37:15 32° ENE 19:42:07 10° N visible
30 Sep 6.4 21:12:33 10° SSW 21:17:45 41° W 21:23:01 10° NNW visible
01 Oct 6.2 19:20:57 10° ESE 19:25:27 26° ENE 19:30:00 10° N visible
01 Oct 6.0 21:00:24 10° S 21:05:47 52° W 21:11:13 10° NNW visible
02 Oct 6.5 19:09:35 10° ESE 19:13:41 22° ENE 19:17:48 10° N visible
02 Oct 5.6 20:48:20 10° S 20:53:50 65° WSW 20:59:23 10° NNW visible
03 Oct 5.3 20:36:22 10° SSE 20:41:54 81° WSW 20:47:30 10° NNW visible
03 Oct 8.0 22:21:29 10° WSW 22:23:24 12° W 22:25:19 10° WNW visible
04 Oct 5.1 20:24:27 10° SSE 20:30:00 82° ENE 20:35:35 10° NNW visible
04 Oct 7.8 22:08:10 10° SW 22:11:18 15° W 22:14:28 10° NW visible
05 Oct 5.2 20:12:38 10° SSE 20:18:07 66° ENE 20:23:38 10° N visible
05 Oct 7.5 21:55:20 10° SW 21:59:14 19° W 22:03:10 10° NW visible
06 Oct 5.4 20:00:54 10° SE 20:06:15 53° ENE 20:11:39 10° N visible
06 Oct 7.2 21:42:45 10° SSW 21:47:11 24° W 21:51:39 10° NW visible
07 Oct 5.6 19:49:13 10° SE 19:54:25 42° ENE 19:59:37 10° N visible
07 Oct 6.9 21:30:46 12° SSW 21:35:10 30° W 21:40:02 10° NW visible
